Overview Statistics Trail Chart Weather Telemetry Raw packets
 

This is the latest recevied weather packets stored in our database for station/object N0QWM. If no packets are shown the sender has not sent any weather packets the latest 10 day(s).

<< 76 77 78 79 80 81 82 >>
Time Temp. Humidity Pressure Rain* Wind** Luminosity Snow
1788141925 27.78° C 77% 1023.6 hPa 0 mm - 0 W/m² -
1788141620 27.78° C 77% 1023.4 hPa 0 mm - 0 W/m² -
1788141315 27.22° C 78% 1023.3 hPa 0 mm - 0 W/m² -
1788141010 27.22° C 79% 1023.6 hPa 0 mm - 0 W/m² -
1788140705 27.22° C 78% 1023.4 hPa 0 mm - 0 W/m² -
1788140400 27.22° C 78% 1023.4 hPa 0 mm - 0 W/m² -
1788140097 27.78° C 78% 1023.3 hPa 0 mm - 0 W/m² -
1788139795 27.78° C 77% 1023.3 hPa 0 mm - 0 W/m² -
1788139491 27.78° C 77% 1023.1 hPa 0 mm - 0 W/m² -
1788139190 27.78° C 77% 1023.3 hPa 0 mm - 0 W/m² -
1788138885 27.78° C 76% 1023.1 hPa 0 mm - 0 W/m² -
1788138582 28.33° C 76% 1023.1 hPa 0 mm - 0 W/m² -
1788138281 28.33° C 75% 1023 hPa 0 mm - 0 W/m² -
1788137977 28.33° C 75% 1023 hPa 0 mm - 0 W/m² -
1788137673 28.33° C 74% 1022.8 hPa 0 mm - 0 W/m² -
1788137372 28.89° C 73% 1022.9 hPa 0 mm - 0 W/m² -
1788137069 28.89° C 72% 1022.8 hPa 0 mm - 0 W/m² -
1788136764 28.89° C 72% 1022.8 hPa 0 mm - 0 W/m² -
1788136460 29.44° C 71% 1022.6 hPa 0 mm - 0 W/m² -
1788136159 29.44° C 71% 1022.7 hPa 0 mm - 0 W/m² -
1788135858 29.44° C 70% 1022.9 hPa 0 mm - 0 W/m² -
1788135548 30° C 69% 1022.9 hPa 0 mm - 0 W/m² -
1788135244 30° C 69% 1022.8 hPa 0 mm - 1 W/m² -
1788134941 30.56° C 67% 1022.7 hPa 0 mm - 3 W/m² -
1788134636 30.56° C 67% 1022.7 hPa 0 mm - 4 W/m² -

* Rain latest hour (hover to see other rain measurements)
** Current wind speed in m/s (hover to see current wind gust speed)